This is the latest recevied weather packets stored in our database for station/object K1ZK-13. If no packets are shown the sender has not sent any weather packets the latest 10 day(s).
| Time | Temp. | Humidity | Pressure | Rain* | Wind** | Luminosity | Snow |
|---|---|---|---|---|---|---|---|
| 1777519548 | 15° C | 60% | 1007.4 hPa | 0 mm | - | 0 W/m² | - |
| 1777519244 | 15° C | 59% | 1007.3 hPa | 0 mm | - | 0 W/m² | - |
| 1777518939 | 15° C | 58% | 1007.3 hPa | 0 mm | - | 0 W/m² | - |
| 1777518636 | 15° C | 58% | 1007.2 hPa | 0 mm | - | 0 W/m² | - |
| 1777518333 | 15° C | 58% | 1007.3 hPa | 0 mm | - | 0 W/m² | - |
| 1777518029 | 15.56° C | 58% | 1007.3 hPa | 0 mm | - | 0 W/m² | - |
| 1777517725 | 15.56° C | 58% | 1007.2 hPa | 0 mm | - | 0 W/m² | - |
| 1777515901 | 15.56° C | 57% | 1007.5 hPa | 0 mm | - | 0 W/m² | - |
| 1777515597 | 15.56° C | 57% | 1007.5 hPa | 0 mm | - | 0 W/m² | - |
| 1777512261 | 16.11° C | 58% | 1007.8 hPa | 0 mm | - | 0 W/m² | - |
| 1777511958 | 16.11° C | 58% | 1007.7 hPa | 0 mm | - | 0 W/m² | - |
| 1777511656 | 16.67° C | 58% | 1007.8 hPa | 0 mm | - | 0 W/m² | - |
| 1777511353 | 16.11° C | 57% | 1007.8 hPa | 0 mm | - | 0 W/m² | - |
| 1777511049 | 16.67° C | 57% | 1007.9 hPa | 0 mm | - | 0 W/m² | - |
| 1777510745 | 16.67° C | 57% | 1008 hPa | 0 mm | - | 0 W/m² | - |
| 1777510443 | 16.67° C | 58% | 1007.8 hPa | 0 mm | - | 0 W/m² | - |
| 1777510137 | 16.67° C | 56% | 1007.9 hPa | 0 mm | - | 0 W/m² | - |
| 1777509835 | 16.67° C | 56% | 1007.8 hPa | 0 mm | - | 0 W/m² | - |
| 1777509530 | 16.67° C | 56% | 1007.7 hPa | 0 mm | - | 0 W/m² | - |
| 1777509227 | 16.67° C | 56% | 1007.8 hPa | 0 mm | - | 0 W/m² | - |
| 1777508925 | 16.67° C | 56% | 1007.9 hPa | 0 mm | - | 0 W/m² | - |
| 1777508621 | 17.22° C | 57% | 1007.8 hPa | 0 mm | - | 0 W/m² | - |
| 1777508319 | 17.22° C | 56% | 1007.9 hPa | 0 mm | - | 0 W/m² | - |
| 1777508015 | 17.22° C | 55% | 1007.8 hPa | 0 mm | - | 0 W/m² | - |
| 1777507712 | 17.22° C | 55% | 1007.9 hPa | 0 mm | - | 0 W/m² | - |
* Rain latest hour (hover to see other rain measurements)
** Current wind speed in m/s (hover to see current wind gust speed)